Wind_Speed
12 12 11 11 11 11 9 10 10 10 10 10 10 10 10 10 10 10 9 9 9 9 8 7 8 8 9 9 9 9 8 9 8 8 9 9 9 9 8 8 7 7 7 7 6 6 5 5 4
12 11 11 10 12 9 9 9 9 10 10 9 9 10 9 10 10 9 9 9 8 8 8 8 8 8 8 8 8 8 8 8 8 8 8 8 8 8 7 7 6 6 6 6 6 6 5 4 4
11 11 10 11 11 9 9 9 9 10 9 9 9 9 9 9 9 8 8 8 7 8 8 8 8 8 8 8 8 8 7 7 7 7 7 7 7 7 6 6 6 5 5 6 6 5 5 4 4
12 12 11 11 10 9 9 9 10 9 9 9 9 9 9 9 8 8 8 7 7 7 7 7 7 7 7 7 7 7 7 7 7 7 6 7 6 6 6 5 5 5 5 5 5 5 4 4 4
12 14 13 11 9 9 9 9 10 9 9 9 9 9 8 7 7 7 7 7 7 7 7 7 7 6 6 6 7 6 6 6 6 7 7 7 6 6 5 5 5 5 5 5 5 4 4 4 4
13 14 13 11 10 10 10 9 9 9 9 9 8 8 8 7 6 7 7 7 6 7 7 7 7 6 6 6 6 6 6 6 6 6 7 6 6 5 5 5 5 5 5 5 4 4 4 4 3
13 13 12 11 11 10 10 9 8 8 8 9 8 8 7 6 6 5 6 6 6 7 7 7 7 6 6 6 5 5 5 5 5 5 5 6 5 5 5 5 4 4 5 4 4 4 4 3 3
12 12 11 11 10 10 9 9 9 8 8 8 8 8 7 6 5 4 5 6 6 6 6 6 6 5 5 5 5 5 5 4 5 5 5 5 5 5 5 5 4 4 4 4 4 4 4 3 3
12 11 9 10 10 10 10 10 10 9 9 8 8 8 7 6 6 5 5 6 6 5 5 6 6 5 5 4 4 5 4 4 4 4 4 4 4 4 4 4 4 4 4 4 3 3 3 3 2
10 9 8 10 10 11 10 10 10 10 9 8 8 8 7 7 6 6 6 6 6 5 5 5 5 5 5 4 4 4 4 4 3 3 4 4 4 4 4 4 3 3 3 3 3 2 2 2 1
9 9 9 10 11 11 11 11 11 10 10 9 8 8 8 7 7 6 6 6 5 5 5 5 5 4 4 4 4 4 4 3 3 3 3 3 4 4 4 3 3 2 2 2 2 1 1 1 1
9 10 9 9 10 11 11 11 11 10 10 10 9 9 8 8 7 7 7 7 6 6 5 4 4 4 3 3 3 3 4 3 3 4 3 3 3 3 3 3 2 2 1 1 1 1 1 0 1
8 9 9 9 9 10 11 11 10 10 10 10 10 9 8 8 7 7 6 6 6 5 4 4 3 3 2 2 2 2 2 3 3 3 3 3 3 3 3 2 1 1 0 1 1 0 0 1 2
6 7 8 8 8 8 9 10 9 9 9 9 9 9 8 7 6 6 6 6 5 4 3 3 3 2 2 2 3 2 3 2 3 2 2 2 2 2 2 1 1 0 0 0 1 1 1 2 2
5 5 5 6 7 7 7 9 9 9 8 8 7 7 7 7 6 5 6 6 5 4 3 2 2 2 1 1 2 2 2 2 2 2 2 2 2 1 2 1 1 0 1 1 2 1 2 2 3
3 3 3 3 4 5 6 7 8 8 8 7 7 7 6 6 5 4 5 5 5 4 4 2 2 2 2 2 1 2 3 3 2 2 2 2 2 1 1 1 0 1 1 2 2 2 3 2 3
2 1 1 1 2 3 4 5 5 6 7 7 6 6 5 5 4 4 4 4 4 4 4 3 3 2 2 2 1 1 2 2 1 2 2 2 1 1 1 1 1 2 2 2 3 3 3 3 4
4 2 1 1 1 2 3 3 3 4 4 5 5 5 4 3 3 3 3 3 3 4 3 3 2 2 2 1 1 1 1 1 1 1 1 1 1 1 1 1 2 2 3 3 4 4 4 4 4
6 5 3 3 3 2 2 3 3 2 2 3 3 3 3 3 3 3 3 3 3 3 3 3 3 2 2 1 1 1 0 0 1 1 1 1 1 2 2 2 2 3 3 4 4 4 5 5 5
6 5 5 5 5 4 4 4 4 2 2 1 2 2 2 2 3 2 2 2 2 2 3 3 3 3 2 2 2 1 1 1 1 1 2 2 3 3 3 3 3 4 4 4 5 5 6 6 7
7 7 7 7 6 6 5 5 5 5 3 2 2 3 3 3 4 4 4 4 3 3 4 3 3 4 4 3 3 3 3 3 2 2 3 4 4 4 4 4 5 5 5 5 6 7 7 8 9
9 9 9 8 6 6 5 5 7 6 5 5 5 5 5 5 5 6 5 5 4 5 5 5 5 5 4 5 5 5 5 5 5 5 6 6 6 6 6 6 6 7 8 8 9 9 10 10 11
11 10 9 8 8 7 7 6 7 6 6 7 7 7 7 6 5 6 7 7 6 6 6 6 6 6 6 6 7 7 7 7 7 7 7 7 7 7 7 8 9 9 10 10 11 11 12 12 13
11 10 10 9 8 8 8 7 7 7 8 8 8 8 7 8 7 8 8 8 8 8 8 8 7 7 7 7 7 7 8 8 8 8 8 9 8 9 9 10 10 11 12 13 13 13 13 14 15
11 10 9 9 9 10 10 8 8 9 9 10 10 9 9 9 9 9 10 9 9 9 9 9 9 9 8 8 8 9 9 9 10 10 11 11 11 11 11 11 13 13 14 14 14 15 15 16 16
13 11 11 11 11 11 12 10 9 10 10 10 11 11 11 12 11 11 11 11 10 10 11 11 10 10 10 10 10 10 10 11 12 12 13 13 14 14 14 14 14 15 15 16 16 16 17 17 18
15 14 13 13 13 13 14 12 11 11 11 12 12 12 12 13 13 13 13 13 13 13 13 12 12 12 13 13 13 13 13 13 14 14 15 15 16 16 17 17 17 17 17 17 18 19 19 19 19
17 16 15 13 14 14 15 14 13 13 13 13 13 13 14 14 14 14 14 15 15 15 15 14 13 15 16 16 15 15 15 14 15 16 17 18 18 18 19 19 20 20 20 20 20 21 21 21 21
19 19 18 17 17 16 15 16 16 14 15 15 14 14 14 15 15 15 15 16 16 15 15 16 17 17 18 18 18 17 16 16 16 18 19 19 20 21 21 21 22 23 23 23 23 23 23 22 22
21 20 20 20 20 19 17 18 18 17 17 16 16 15 15 16 16 17 18 18 18 18 17 17 18 19 19 18 19 18 18 18 18 19 20 20 21 22 23 24 24 24 25 25 26 25 25 24 24
Wind_Direction
91 90 88 88 84 82 86 87 85 88 92 91 93 99 103 105 111 114 111 109 111 116 113 115 118 116 118 116 114 111 109 108 111 111 108 109 110 113 113 116 112 109 107 108 110 108 106 111 113
87 88 88 89 84 86 86 87 86 88 90 92 94 96 100 104 108 114 111 111 113 115 112 118 121 117 119 122 120 116 115 113 117 119 114 110 111 114 115 118 116 112 108 108 108 106 106 102 109
86 86 86 86 89 90 87 85 84 85 86 90 92 93 98 104 107 111 112 114 114 114 116 122 125 121 117 117 118 119 123 125 125 127 121 112 110 113 115 119 118 116 114 115 111 109 105 99 114
83 87 85 85 88 90 86 83 83 85 85 86 90 92 96 101 105 109 112 114 117 120 122 125 125 122 116 115 116 120 125 125 125 131 129 116 115 114 114 118 115 113 114 118 114 112 107 108 122
85 84 83 84 85 87 84 83 83 85 85 85 90 90 91 96 102 111 112 110 116 122 125 129 129 125 119 118 118 120 124 124 121 128 133 119 117 119 114 116 116 113 114 116 117 114 110 107 110
85 86 89 86 85 84 81 80 82 82 82 83 86 87 87 92 100 112 115 113 118 126 130 131 130 126 126 124 121 120 121 124 124 129 130 124 124 127 121 120 121 116 123 127 128 126 124 117 112
86 90 90 86 83 80 79 76 78 80 82 83 84 83 85 89 100 111 118 119 121 126 132 131 129 127 128 127 123 122 122 124 128 130 134 128 125 128 123 124 124 124 127 129 130 129 125 129 119
88 86 88 86 84 76 74 71 72 78 84 85 82 80 82 84 89 99 115 125 125 126 130 130 133 130 128 132 131 126 120 118 122 126 133 123 117 116 125 127 123 120 125 124 122 120 117 123 121
85 84 91 90 86 77 71 67 68 75 84 86 84 80 78 80 85 97 111 122 125 127 132 134 131 125 127 133 137 133 125 116 115 125 128 121 118 121 128 123 120 120 118 120 119 116 115 117 117
87 94 93 91 83 76 71 68 67 69 74 80 84 82 76 77 83 96 110 121 124 126 127 132 133 124 116 114 122 129 125 119 122 128 130 128 124 124 128 125 121 121 123 118 122 122 117 117 98
91 95 95 90 83 75 69 69 68 67 68 76 82 80 76 75 78 97 103 115 121 127 127 128 123 120 116 117 118 118 117 113 121 127 131 129 133 137 139 143 138 129 121 121 125 122 106 115 64
97 95 94 89 82 73 68 69 69 67 63 72 76 77 77 75 79 94 104 113 116 124 126 128 121 115 111 115 117 123 125 121 118 122 130 132 129 139 143 145 140 140 107 91 119 104 79 331 343
101 98 89 87 82 73 68 68 67 65 63 71 74 75 77 76 77 88 88 105 109 120 130 135 128 118 120 128 130 129 147 136 131 134 126 123 137 152 155 145 148 160 40 55 60 86 335 287 301
106 95 88 83 79 70 67 65 65 65 64 72 73 74 77 77 75 84 82 79 94 106 121 137 136 128 137 148 151 139 136 132 123 131 119 133 142 154 153 145 130 172 355 325 315 291 302 305 305
114 96 84 82 76 66 64 60 61 64 67 67 69 71 74 75 74 73 77 82 82 85 100 121 131 125 118 142 162 157 141 127 123 117 109 117 133 145 149 122 106 52 353 339 306 292 296 296 291
131 96 72 75 69 61 58 58 58 58 62 64 62 64 68 75 75 72 72 73 72 72 72 82 101 104 100 118 125 129 119 123 134 141 129 124 131 141 161 141 140 322 338 333 323 311 304 300 293
168 115 41 54 63 62 59 58 57 55 57 63 60 58 58 67 67 63 66 57 55 58 57 64 74 82 79 81 92 108 117 131 134 138 154 155 149 151 204 231 272 294 311 317 318 309 307 304 303
202 213 273 347 3 34 37 28 33 52 54 60 59 47 41 48 47 46 52 48 52 49 45 46 52 59 47 44 68 98 139 136 167 150 170 195 227 254 267 281 281 301 314 317 310 303 303 306 303
216 225 252 283 288 311 337 340 346 6 34 43 48 32 19 17 15 24 37 47 44 32 28 22 19 16 14 11 28 41 285 281 221 208 218 237 278 297 296 298 283 305 308 314 315 310 304 300 295
227 234 253 269 278 283 299 317 322 315 323 348 11 2 342 330 327 326 331 348 5 8 357 347 337 329 328 331 314 297 276 278 282 244 249 272 286 289 302 299 307 307 305 306 308 312 311 308 301
233 239 250 266 275 278 286 309 300 298 294 293 303 314 312 299 288 289 293 301 306 317 322 325 319 315 308 310 310 297 282 279 273 280 276 280 286 290 298 309 308 303 302 302 303 304 304 306 306
241 247 249 260 265 269 268 281 288 279 275 281 287 288 285 284 282 282 283 285 290 295 300 303 302 305 305 306 302 295 291 285 279 281 281 282 284 284 289 295 302 303 306 303 303 305 301 303 303
241 251 255 259 262 264 270 269 279 275 266 270 276 281 283 283 288 288 285 279 282 288 289 292 293 296 298 295 292 290 288 287 288 289 285 286 285 283 287 293 296 300 302 302 300 302 301 301 301
247 253 260 262 263 267 265 264 264 265 260 261 268 275 279 278 285 284 284 282 279 281 285 287 287 290 293 295 293 287 283 286 287 285 284 285 290 289 287 292 293 295 298 299 298 300 299 298 298
245 251 264 269 271 270 267 262 257 262 260 258 263 271 277 279 281 280 280 282 283 279 280 281 284 288 290 291 293 289 284 285 288 286 285 283 287 290 290 291 290 292 296 296 296 296 296 297 295
246 246 249 255 264 271 276 269 263 263 263 262 262 268 272 276 278 277 275 276 277 276 276 278 279 283 286 288 291 290 285 283 285 287 287 286 286 287 287 288 292 293 293 294 294 296 297 295 294
247 248 249 256 263 269 270 273 272 266 263 264 264 268 271 273 275 274 273 273 274 274 276 276 278 280 282 285 286 289 288 285 282 283 284 284 283 282 284 287 289 290 291 291 292 293 293 291 290
245 251 254 255 261 267 274 276 275 267 260 261 264 266 267 270 272 273 274 275 275 275 276 276 277 281 284 282 285 285 287 286 282 282 284 283 283 284 284 286 287 287 287 288 290 291 290 287 287
250 250 253 258 259 264 272 272 272 270 264 264 266 267 267 268 270 272 275 278 280 280 279 278 278 283 289 288 285 285 285 284 286 286 286 285 284 283 284 285 285 286 285 285 286 288 289 287 285
250 253 257 260 263 265 266 270 271 270 267 267 269 269 267 266 268 270 273 278 278 279 280 279 281 283 285 285 284 283 284 284 285 286 286 287 286 284 284 284 284 284 284 283 284 285 285 285 285
Height
5907 5907 5907 5909 5910 5910 5909 5908 5907 5905 5905 5904 5904 5903 5903 5903 5904 5906 5904 5903 5903 5903 5903 5903 5903 5903 5903 5903 5903 5903 5903 5903 5903 5903 5904 5904 5904 5904 5905 5905 5905 5906 5906 5906 5906 5906 5907 5907 5907
5909 5909 5910 5911 5911 5911 5910 5909 5908 5907 5906 5906 5905 5905 5904 5904 5904 5904 5903 5904 5904 5904 5904 5904 5904 5904 5904 5904 5904 5904 5904 5904 5904 5905 5905 5905 5905 5905 5906 5906 5906 5906 5907 5907 5907 5907 5907 5907 5908
5910 5910 5912 5912 5912 5912 5912 5910 5909 5908 5907 5907 5906 5906 5906 5905 5905 5905 5905 5905 5905 5904 5905 5905 5905 5905 5905 5905 5905 5905 5905 5905 5905 5905 5906 5906 5906 5906 5906 5907 5907 5907 5907 5908 5908 5908 5908 5908 5908
5912 5913 5914 5914 5913 5913 5912 5911 5910 5909 5908 5908 5907 5907 5906 5906 5906 5906 5905 5905 5906 5906 5906 5906 5906 5906 5906 5906 5906 5906 5906 5906 5906 5906 5906 5907 5907 5907 5907 5907 5907 5908 5908 5908 5909 5909 5909 5909 5909
5914 5914 5916 5916 5915 5914 5913 5912 5911 5910 5909 5909 5908 5908 5907 5907 5907 5907 5906 5906 5906 5906 5906 5907 5907 5907 5907 5907 5907 5907 5907 5907 5907 5906 5907 5907 5907 5907 5908 5908 5908 5909 5909 5909 5909 5909 5909 5909 5909
5917 5917 5919 5917 5916 5915 5914 5913 5912 5911 5911 5910 5909 5909 5908 5908 5908 5908 5907 5907 5907 5907 5907 5907 5908 5908 5908 5908 5908 5908 5908 5907 5907 5907 5908 5908 5908 5908 5908 5909 5909 5909 5909 5909 5910 5910 5910 5910 5910
5919 5920 5920 5919 5918 5917 5916 5915 5913 5912 5912 5911 5910 5910 5909 5909 5908 5908 5908 5908 5908 5908 5908 5908 5908 5909 5909 5909 5909 5909 5908 5908 5908 5908 5908 5909 5909 5909 5909 5909 5910 5910 5910 5910 5910 5910 5910 5910 5910
5921 5922 5922 5921 5920 5919 5917 5916 5915 5913 5913 5912 5911 5911 5910 5910 5909 5909 5908 5908 5908 5909 5909 5909 5909 5909 5909 5909 5909 5909 5909 5909 5909 5909 5909 5909 5910 5910 5910 5910 5910 5910 5910 5910 5910 5910 5910 5910 5910
5922 5925 5923 5922 5921 5920 5918 5917 5916 5915 5914 5913 5912 5912 5911 5910 5909 5909 5909 5909 5909 5909 5910 5910 5910 5910 5910 5910 5910 5910 5910 5910 5909 5909 5909 5909 5910 5910 5910 5910 5910 5910 5911 5911 5911 5911 5911 5910 5910
5925 5926 5924 5923 5922 5921 5920 5919 5917 5916 5915 5914 5913 5912 5911 5911 5910 5910 5910 5910 5910 5910 5910 5911 5911 5911 5911 5910 5910 5910 5910 5910 5910 5910 5910 5910 5910 5911 5911 5911 5911 5911 5911 5911 5911 5911 5911 5910 5910
5926 5926 5925 5924 5923 5922 5921 5920 5919 5917 5917 5915 5914 5913 5912 5912 5911 5911 5910 5910 5911 5911 5911 5911 5912 5911 5911 5911 5911 5910 5910 5910 5910 5910 5910 5911 5911 5911 5911 5911 5911 5911 5911 5911 5911 5911 5910 5910 5910
5928 5927 5926 5926 5925 5923 5922 5921 5920 5919 5918 5917 5915 5914 5914 5913 5912 5912 5911 5911 5911 5912 5912 5912 5912 5912 5912 5912 5911 5911 5910 5910 5911 5911 5911 5911 5911 5911 5912 5911 5911 5911 5911 5911 5911 5911 5911 5911 5910
5929 5929 5928 5927 5926 5925 5924 5922 5922 5920 5919 5918 5917 5916 5915 5914 5914 5913 5912 5912 5912 5913 5913 5913 5913 5913 5913 5912 5912 5912 5911 5911 5911 5911 5911 5911 5912 5912 5912 5912 5912 5912 5912 5911 5911 5911 5911 5910 5910
5930 5930 5929 5928 5928 5927 5925 5924 5923 5922 5920 5920 5919 5918 5917 5916 5915 5915 5914 5914 5914 5914 5914 5914 5914 5913 5913 5913 5913 5912 5912 5912 5912 5912 5912 5912 5912 5912 5912 5912 5912 5912 5912 5911 5911 5911 5910 5910 5910
5931 5932 5931 5930 5929 5928 5928 5926 5925 5923 5922 5921 5920 5920 5919 5918 5917 5917 5916 5915 5915 5915 5914 5914 5914 5914 5914 5913 5913 5912 5912 5912 5912 5912 5912 5912 5912 5912 5912 5912 5912 5912 5911 5911 5911 5911 5910 5910 5910
5933 5933 5933 5932 5930 5930 5931 5929 5927 5925 5924 5923 5922 5921 5921 5920 5919 5918 5917 5917 5916 5916 5915 5915 5915 5915 5914 5914 5913 5913 5912 5912 5912 5912 5912 5912 5912 5912 5912 5912 5912 5912 5911 5911 5911 5910 5910 5910 5909
5934 5935 5934 5933 5931 5931 5931 5930 5928 5927 5926 5924 5923 5923 5922 5921 5920 5920 5919 5918 5917 5917 5916 5916 5915 5915 5915 5914 5914 5913 5913 5913 5913 5913 5913 5913 5912 5912 5912 5912 5912 5912 5911 5911 5910 5910 5910 5909 5909
5934 5934 5934 5933 5932 5931 5931 5930 5929 5928 5927 5926 5925 5924 5923 5922 5922 5921 5920 5919 5919 5918 5917 5917 5916 5915 5915 5914 5914 5914 5913 5913 5913 5913 5913 5913 5912 5912 5911 5911 5911 5911 5911 5910 5910 5909 5909 5909 5908
5932 5933 5933 5933 5932 5931 5931 5930 5929 5928 5927 5926 5926 5925 5924 5923 5922 5922 5921 5921 5920 5919 5918 5918 5917 5916 5915 5915 5914 5914 5913 5913 5913 5913 5912 5912 5912 5911 5911 5911 5910 5910 5910 5910 5909 5909 5908 5907 5907
5931 5932 5932 5932 5931 5931 5930 5930 5929 5928 5928 5927 5926 5925 5924 5923 5923 5922 5922 5921 5920 5920 5919 5918 5917 5916 5916 5915 5914 5914 5913 5913 5913 5912 5912 5912 5911 5911 5910 5910 5910 5909 5909 5909 5908 5908 5907 5906 5905
5930 5930 5930 5930 5930 5930 5930 5931 5929 5928 5927 5926 5926 5925 5924 5923 5922 5922 5922 5921 5920 5920 5919 5918 5917 5916 5915 5915 5914 5914 5913 5913 5912 5912 5912 5911 5911 5910 5910 5909 5909 5908 5908 5907 5907 5906 5906 5905 5904
5928 5928 5928 5928 5929 5930 5930 5931 5929 5928 5927 5926 5925 5924 5923 5923 5922 5921 5921 5920 5920 5919 5918 5918 5917 5916 5915 5914 5914 5913 5912 5912 5912 5911 5911 5910 5910 5910 5909 5909 5908 5907 5907 5906 5905 5905 5904 5903 5902
5925 5925 5926 5927 5927 5929 5929 5930 5930 5927 5926 5925 5924 5924 5923 5922 5921 5921 5920 5919 5919 5918 5917 5917 5916 5915 5914 5913 5912 5912 5911 5911 5910 5910 5910 5909 5909 5908 5908 5907 5907 5906 5905 5904 5903 5902 5901 5900 5899
5922 5924 5924 5925 5926 5927 5927 5927 5928 5926 5925 5924 5923 5922 5922 5921 5920 5920 5919 5918 5917 5917 5916 5915 5915 5914 5913 5912 5911 5910 5910 5909 5909 5908 5908 5907 5907 5907 5906 5906 5905 5904 5903 5902 5901 5900 5899 5898 5896
5920 5922 5924 5925 5926 5926 5924 5924 5925 5923 5922 5922 5921 5920 5920 5919 5919 5918 5917 5916 5916 5915 5914 5914 5913 5912 5911 5911 5910 5909 5908 5907 5907 5906 5906 5905 5905 5904 5904 5903 5902 5901 5900 5899 5898 5897 5895 5894 5893
5917 5920 5922 5924 5924 5924 5921 5921 5922 5920 5919 5919 5918 5918 5918 5917 5917 5916 5915 5914 5914 5913 5912 5912 5911 5910 5910 5909 5908 5907 5906 5905 5904 5904 5903 5902 5902 5901 5901 5900 5899 5898 5897 5895 5894 5893 5892 5890 5889
5914 5915 5918 5919 5919 5919 5919 5918 5918 5917 5916 5916 5916 5915 5915 5914 5914 5913 5912 5912 5911 5910 5910 5909 5908 5907 5907 5906 5905 5904 5903 5902 5901 5900 5899 5898 5898 5897 5897 5896 5895 5894 5893 5891 5890 5889 5887 5886 5885
5910 5912 5913 5915 5915 5916 5916 5915 5915 5913 5913 5913 5913 5912 5911 5911 5910 5910 5909 5909 5908 5907 5906 5906 5905 5905 5904 5903 5902 5901 5899 5898 5897 5896 5895 5894 5894 5893 5892 5891 5890 5889 5888 5886 5885 5884 5883 5881 5880
5906 5907 5908 5910 5911 5912 5913 5914 5910 5909 5909 5909 5909 5908 5908 5907 5907 5907 5906 5905 5904 5903 5903 5902 5902 5901 5900 5899 5898 5897 5896 5895 5893 5892 5891 5890 5889 5888 5887 5886 5885 5884 5882 5881 5880 5878 5877 5876 5874
5901 5902 5904 5906 5905 5905 5907 5910 5905 5905 5904 5904 5904 5904 5904 5904 5903 5903 5902 5902 5901 5900 5899 5898 5897 5896 5896 5895 5894 5893 5891 5890 5889 5888 5886 5884 5883 5882 5881 5880 5879 5878 5876 5875 5874 5872 5871 5870 5868